Terminal Aerodrome Forecast
Issued by NWS Cleveland, OH

Home | Current Version | Previous Version | Graphics & Text | Print | Product List | Glossary On
Versions: 1 2 3 4 5 6 7 8 9 10 11 12 13 14 15 16 17 18 19 20 21 22 23 24 25 26 27 28 29 30
000
FTUS41 KCLE 151600 AAA
TAFCLE
TAF AMD
KCLE 151603Z 1516/1618 19006KT P6SM BKN050
     FM152000 15007KT P6SM SCT030 BKN200
     FM160500 14007KT 5SM -RA BR BKN030
     FM161100 16011KT 3SM -RA BR OVC012=

USA.gov is the U.S. government's official web portal to all federal, state and local government web resources and services.